SCP
0 0 0 0 0 0 0 0 0 0 0 1 1 2 2 2 2 3 3 3 3 3 3 3 3 3 4 4 4 4 5 5 4 3 3 2 2 1 1 1 1 1 2 2
0 0 0 0 0 0 0 0 0 0 1 1 1 2 3 3 2 2 2 2 2 2 2 2 3 3 3 4 3 4 4 5 4 3 2 2 1 1 1 1 1 2 2 2
0 0 0 0 0 0 0 0 0 0 1 1 1 1 3 3 2 2 2 2 2 2 2 2 2 2 2 3 3 3 4 4 3 2 2 2 1 1 1 1 2 2 2 2
0 0 0 0 0 0 0 0 0 0 1 1 1 1 2 3 2 1 1 2 2 2 2 2 2 2 2 2 2 3 4 4 3 2 2 2 2 2 1 2 2 2 1 1
0 0 0 0 0 0 0 0 0 0 0 0 0 1 2 2 2 1 1 1 2 2 1 1 2 2 1 1 2 3 4 4 3 2 2 2 2 2 1 1 2 1 1 1
0 0 0 0 0 0 0 0 0 0 0 0 0 1 1 1 1 1 1 1 1 1 1 2 2 2 1 1 2 3 4 4 3 2 2 2 2 1 1 1 1 1 1 1
0 0 0 0 0 0 0 0 1 0 0 0 0 1 1 1 0 1 1 1 1 1 2 3 3 2 1 2 2 3 5 4 3 2 2 2 1 1 1 1 1 1 1 1
0 0 0 0 0 0 0 0 0 0 0 0 0 0 0 0 0 0 0 0 1 1 3 3 2 2 1 2 2 3 4 4 2 2 2 2 1 1 1 1 1 1 1 1
0 0 0 0 0 0 0 0 0 0 0 0 0 1 0 0 0 0 0 0 1 1 2 2 2 1 1 1 2 3 3 3 2 2 2 2 2 1 1 1 1 1 1 0
0 0 0 0 0 0 0 0 0 0 0 0 0 0 0 0 0 0 0 1 1 1 2 2 1 1 1 1 1 2 2 2 2 2 2 2 2 2 1 1 1 0 0 0
0 0 0 0 0 0 0 0 0 0 0 0 0 0 0 0 0 0 1 1 1 1 1 1 1 1 1 1 1 1 1 2 2 2 2 2 2 1 1 1 0 0 0 0
0 0 0 0 1 0 0 0 0 0 0 0 0 0 0 0 0 1 1 1 1 1 1 1 1 1 1 1 1 1 1 1 2 2 2 2 2 1 1 0 0 0 0 0
0 0 0 0 1 1 1 0 0 0 0 0 0 0 0 0 0 1 1 1 1 1 1 1 1 1 2 2 2 1 1 1 2 2 2 2 1 1 1 0 1 1 0 0
0 0 0 0 1 1 1 0 0 0 0 0 0 0 0 0 0 1 1 1 1 1 1 1 2 2 3 3 2 2 1 1 2 2 2 2 1 1 1 1 1 1 1 0
0 0 0 0 0 0 0 0 0 0 0 0 0 0 0 1 1 1 1 1 1 1 1 2 2 3 4 4 3 2 2 2 3 3 2 2 1 1 1 1 1 1 1 0
0 0 0 0 0 0 0 0 0 0 0 0 0 0 1 1 1 1 1 1 1 1 1 2 3 4 5 4 3 2 3 3 3 3 3 2 1 1 1 1 1 1 1 1
1 1 1 0 0 0 0 0 0 0 0 1 1 1 1 1 1 1 1 1 1 1 1 2 3 4 4 4 3 3 3 4 4 4 3 3 2 1 1 1 1 1 1 1
1 1 1 0 0 0 0 0 0 1 1 1 1 1 1 1 1 2 2 2 1 1 1 2 3 3 3 3 3 3 3 3 4 3 3 3 2 1 1 1 1 2 1 1
1 1 1 0 0 0 1 1 1 1 1 1 1 1 1 1 2 3 3 2 1 1 2 2 3 3 3 3 3 3 3 3 3 3 3 3 3 2 2 2 2 2 2 1
1 1 1 0 0 1 1 1 1 1 2 2 2 2 2 2 2 2 2 1 1 2 2 2 3 3 3 4 4 4 3 2 2 2 2 3 3 3 3 3 3 3 2 1
1 1 1 0 1 1 1 1 1 1 2 2 2 2 2 2 1 1 1 1 1 2 2 2 3 4 4 5 5 4 3 2 1 1 2 2 3 3 3 4 4 3 2 1
1 1 1 1 1 2 2 2 1 1 1 1 1 1 1 1 1 1 1 2 2 2 2 2 3 4 5 6 5 4 3 2 2 1 1 2 2 3 3 4 4 3 2 1
1 1 1 2 2 2 2 2 2 1 1 1 1 1 1 1 2 2 2 3 3 3 2 2 3 4 6 6 6 5 4 4 3 2 2 2 2 2 3 3 3 3 2 1
1 1 1 2 2 2 3 2 2 2 1 1 1 1 1 2 2 3 3 3 4 3 3 3 3 4 5 6 5 5 6 5 4 3 2 2 2 2 2 3 3 3 2 1
1 1 1 2 2 2 3 2 2 2 1 1 1 1 2 2 2 3 3 4 4 4 4 4 4 5 6 6 5 6 7 7 6 4 3 2 2 2 2 2 3 2 1 1
1 1 2 2 2 2 2 2 2 1 1 1 1 1 1 2 2 3 3 4 4 5 5 5 5 6 6 6 6 7 8 9 7 4 3 2 2 1 1 2 2 2 1 1
Wind_Speed
13 10 10 9 8 9 9 8 7 4 1 1 3 5 6 6 7 8 9 8 7 8 9 8 9 9 9 8 7 6 6 5 3 2 1 1 1 1 1 3 3 2 1 1
11 9 12 10 10 10 8 7 6 4 2 1 4 4 2 4 7 8 9 9 10 9 9 9 8 8 8 7 7 7 6 5 3 2 1 1 1 1 1 2 2 1 1 0
12 7 7 8 9 8 8 7 7 7 3 3 3 2 1 2 5 8 8 9 10 11 10 10 9 8 8 8 7 6 6 5 3 2 1 0 0 1 0 1 1 1 0 1
9 8 8 9 8 8 6 7 8 8 3 1 3 1 3 6 5 7 8 9 10 11 11 10 10 9 8 8 8 7 6 4 3 1 1 1 1 1 1 1 1 1 1 2
10 9 10 9 7 7 7 6 8 9 5 2 4 2 4 6 6 6 8 9 10 11 11 11 10 9 8 8 8 8 6 4 3 1 1 1 3 3 3 3 3 2 3 3
12 11 9 8 8 7 6 6 5 6 5 3 9 4 5 6 9 11 10 11 11 11 11 11 10 8 7 7 7 8 7 5 3 1 0 1 2 3 4 4 4 3 2 2
10 9 9 7 8 6 7 7 3 2 0 6 8 1 6 8 10 12 12 12 12 12 11 11 11 9 7 7 6 7 8 5 3 1 1 1 2 3 4 3 3 3 3 3
7 5 7 7 8 6 7 8 5 5 3 3 3 4 6 10 11 12 12 12 12 12 11 11 11 9 8 7 7 7 7 5 2 1 1 1 1 2 3 4 4 4 3 3
6 5 8 9 7 6 6 7 8 6 5 2 2 7 8 8 12 12 12 12 11 11 12 11 10 9 8 7 6 6 6 4 2 1 0 2 2 1 2 3 4 3 3 5
8 7 6 7 9 8 8 8 6 5 4 2 0 3 6 9 11 11 11 11 11 10 11 10 8 7 7 7 6 6 5 4 2 2 2 1 1 1 1 2 3 3 3 4
8 8 6 6 8 8 8 7 5 5 5 2 1 1 7 10 11 12 12 11 11 10 10 10 9 9 7 7 6 6 4 4 3 2 1 1 2 2 2 2 3 3 3 4
5 6 7 5 6 9 10 7 5 4 4 3 1 2 6 8 10 10 11 11 11 10 10 11 10 9 7 6 5 5 3 2 2 2 1 1 1 2 2 3 3 4 4 4
3 4 8 4 6 10 10 11 8 5 5 5 2 3 5 6 7 8 9 10 10 9 9 10 9 8 7 5 4 3 3 2 1 1 1 1 1 2 2 3 4 4 4 5
5 6 9 7 4 6 11 15 13 7 7 5 3 2 6 5 6 6 8 9 10 10 8 8 8 6 6 5 4 3 3 2 1 1 1 2 2 2 3 4 4 4 4 5
6 8 8 6 5 10 13 15 14 11 9 8 5 5 7 9 7 7 8 9 10 11 10 9 8 7 6 6 5 4 3 2 2 1 3 2 2 2 3 4 4 4 5 6
5 8 9 10 10 13 16 15 12 11 10 8 7 3 4 7 7 7 8 9 9 10 11 11 10 9 7 6 5 5 4 3 2 3 3 3 2 3 4 4 5 4 4 5
7 7 10 11 10 11 12 10 10 9 7 5 4 2 5 6 6 6 6 7 7 8 9 10 10 9 7 6 5 5 4 4 4 4 4 3 3 4 4 5 4 5 5 5
7 8 7 10 9 11 8 7 5 4 4 3 2 5 5 4 5 5 6 6 6 7 8 9 9 9 8 7 7 6 5 5 5 5 4 3 3 4 4 4 4 4 4 5
6 7 9 9 10 10 8 6 5 4 3 2 2 4 5 5 4 4 7 8 6 5 6 8 8 9 8 7 7 6 5 5 5 5 3 3 3 4 4 5 5 4 4 5
7 7 9 10 10 9 5 4 3 3 3 1 3 3 3 3 2 2 7 8 7 6 6 7 8 8 7 6 6 5 6 5 4 4 3 3 3 4 5 5 5 5 4 5
7 10 11 11 12 6 1 1 1 2 1 4 4 2 1 1 1 5 6 7 7 7 8 7 7 7 7 7 6 5 5 4 3 2 2 3 4 4 6 6 4 5 5 6
10 9 9 9 9 4 5 4 3 2 3 4 2 1 1 2 3 4 6 7 7 8 9 9 6 6 6 6 6 5 5 3 2 3 3 4 4 6 6 4 4 5 5 7
8 5 3 1 1 1 4 3 2 2 3 5 5 4 2 1 1 3 5 7 7 7 7 7 8 7 6 7 6 6 4 3 3 3 4 5 6 6 6 6 6 6 5 6
4 4 3 1 3 4 3 1 0 2 3 5 6 6 5 3 1 2 4 5 5 6 6 6 7 7 6 6 7 6 5 4 4 4 4 5 6 7 7 5 5 6 5 5
4 3 2 1 2 1 4 4 4 5 6 7 7 7 5 4 2 2 4 4 4 4 4 5 4 4 5 5 5 6 5 5 5 5 5 6 7 8 6 6 6 6 6 5
4 3 1 3 3 3 5 7 6 6 6 7 7 8 8 6 4 3 3 4 4 3 3 3 3 3 4 5 5 4 4 4 5 5 6 6 6 6 5 5 6 8 10 10
Wind_Direction
247 243 273 291 295 296 311 324 338 324 324 350 95 122 135 138 132 137 130 127 126 122 122 122 124 125 124 124 129 129 125 125 133 120 125 118 111 190 157 138 125 111 75 56
251 249 263 283 292 300 313 316 307 290 270 62 70 72 75 128 138 141 138 139 141 138 136 136 136 134 132 137 136 132 130 134 135 118 126 174 125 253 120 95 115 127 113 5
268 262 263 281 298 306 315 308 303 303 314 71 88 69 116 206 146 142 146 149 151 149 150 149 145 142 142 140 141 132 128 129 128 128 156 67 97 268 96 117 152 137 61 333
279 286 285 288 295 298 298 302 303 296 305 316 208 176 195 200 179 164 159 158 155 148 151 152 152 149 148 147 139 128 128 130 133 138 53 340 303 345 2 14 54 44 341 297
276 274 276 282 287 292 304 316 324 336 4 11 266 192 191 184 174 178 166 159 153 153 154 154 151 152 153 150 142 140 140 140 138 144 69 336 346 355 4 10 359 341 289 262
280 283 281 282 283 286 297 300 338 346 22 314 254 227 162 182 179 179 171 161 160 160 156 152 148 151 154 152 152 149 142 143 150 182 221 360 347 350 336 323 311 306 304 300
266 277 276 272 273 279 292 291 301 351 34 243 251 209 133 154 162 167 164 163 166 162 158 155 156 163 164 161 149 136 136 144 158 175 80 20 5 326 295 304 326 335 323 330
274 280 263 256 258 270 271 272 275 287 258 219 225 122 126 137 144 150 158 163 167 163 161 164 166 168 170 159 147 140 135 138 140 122 87 26 337 311 344 14 351 325 320 340
282 277 252 260 269 274 281 284 288 286 299 321 156 117 118 139 143 153 162 166 170 168 166 169 166 163 160 147 140 130 127 128 127 123 158 238 235 296 326 329 301 313 349 327
269 278 276 270 267 251 264 279 283 293 305 337 349 148 157 170 165 166 169 170 168 171 166 160 150 139 128 125 122 118 125 134 157 209 252 307 20 303 301 299 308 304 301 310
262 275 276 266 273 291 266 263 296 310 317 348 33 300 165 181 174 174 178 177 171 175 165 151 142 137 139 141 143 145 154 164 176 198 185 299 284 305 308 288 286 301 309 306
271 280 285 283 326 328 302 283 266 283 310 306 332 127 148 170 169 174 173 170 168 168 157 151 148 147 152 156 159 158 161 175 179 173 177 243 270 295 306 308 319 315 304 297
301 290 283 292 7 350 312 293 280 274 275 278 295 172 167 164 160 165 161 158 154 156 152 146 142 150 158 161 155 156 167 181 188 125 287 276 279 294 295 294 293 292 291 291
282 269 279 282 241 234 262 272 268 254 264 270 288 194 179 178 167 162 158 154 155 157 151 145 139 149 153 151 158 177 177 177 164 116 277 281 284 281 282 287 289 287 289 289
264 265 273 270 232 233 248 254 258 250 254 268 251 224 187 178 179 171 169 165 164 162 163 161 156 160 160 167 169 185 181 164 155 223 259 263 270 282 280 280 283 283 282 286
264 275 282 271 249 249 253 250 253 257 258 261 267 259 128 149 155 162 172 175 174 172 173 171 168 165 168 177 180 175 176 171 185 227 255 262 268 274 273 274 272 277 281 286
257 266 277 282 295 285 269 264 253 252 255 256 243 139 119 139 153 163 170 178 180 179 175 170 166 162 165 173 167 178 183 177 201 226 247 250 255 270 276 286 296 294 293 291
254 280 277 279 288 276 280 293 277 262 252 240 155 135 141 141 139 153 166 171 179 177 170 160 160 159 165 166 168 183 190 191 211 226 240 252 261 273 281 283 283 284 286 286
224 243 264 271 273 274 279 299 296 276 245 239 177 139 131 127 146 180 170 159 167 166 151 147 155 157 159 167 172 180 198 211 222 235 243 261 275 284 285 283 284 285 284 285
214 221 249 258 263 268 267 264 268 273 249 0 109 112 121 160 224 132 141 148 155 151 143 146 157 153 154 161 163 181 209 220 232 249 260 271 274 275 278 278 278 281 282 281
229 230 241 256 264 270 308 263 283 239 56 32 66 72 135 138 66 105 134 146 146 145 147 150 153 151 155 155 159 191 219 229 241 261 267 265 260 260 260 259 260 269 274 278
239 237 241 254 270 293 19 30 44 79 335 315 359 358 26 98 130 150 145 142 149 157 164 164 155 152 152 159 170 197 218 227 235 254 265 269 266 269 275 270 267 267 268 274
259 269 261 194 203 4 351 25 2 12 310 307 324 342 336 281 183 157 147 149 159 164 167 167 162 163 165 170 179 201 209 213 229 246 257 264 267 265 264 261 265 267 262 269
319 332 303 231 183 175 155 143 296 293 311 328 337 343 341 340 349 123 136 154 163 168 165 165 168 175 178 182 187 196 199 202 222 241 252 260 261 261 258 248 259 265 269 274
287 260 268 332 6 181 91 53 7 358 4 357 356 350 345 343 352 100 130 141 148 150 149 160 167 174 179 183 191 199 198 197 223 244 255 262 263 263 256 251 249 254 255 255
339 7 20 69 45 22 34 22 8 5 16 10 7 4 4 5 17 66 96 112 123 135 140 152 170 186 187 185 195 203 200 202 223 245 255 263 270 273 271 269 269 245 238 241